Mobridge, SD

7:17 AM CDT on August 21, 2017 (GMT -0500)
Mobridge Municipal

Weather History for KMBG - May, 2013

Change the Weather History Date:

Monday, May 20, 2013

  Actual Average Record
Temperature  
Mean Temperature 53 °F 57 °F  
Max Temperature 57 °F 69 °F 95 °F (1934)
Min Temperature 49 °F 45 °F 26 °F (2003)
Degree Days  
Heating Degree Days 12 8  
Month to date heating degree days 233 217  
Since 1 July heating degree days 8131 7812  
Cooling Degree Days 0 1  
Month to date cooling degree days 13 2  
Year to date cooling degree days 13 3  
Growing Degree Days 4 (Base 50)    
Moisture  
Dew Point 52 °F    
Average Humidity 93    
Maximum Humidity 100    
Minimum Humidity 86    
Precipitation  
Precipitation 0.42 in 0.09 in 1.27 in (1917)
Month to date precipitation 2.55 1.77  
Year to date precipitation 5.60 4.97  
Sea Level Pressure  
Sea Level Pressure 29.51 in    
Wind  
Wind Speed 16 mph (North)    
Max Wind Speed 29 mph    
Max Gust Speed 40 mph    
Visibility 7 miles    
Events Fog , Rain    
T = Trace of Precipitation, MM = Missing Value Source: NWS Daily Summary

Daily Weather History Graph

Daily Weather History Graph

Search for Another Location

Airport or City:

Trip Planner

Search our weather history database for the weather conditions in past years. The results will help you decide how hot, cold, wet, or windy it might be!

Date:

Astronomy

May. 20, 2013 Rise Set
Actual Time 6:05 AM CDT 9:11 PM CDT
Civil Twilight 5:29 AM CDT 9:47 PM CDT
Nautical Twilight 4:44 AM CDT 10:33 PM CDT
Astronomical Twilight 3:48 AM CDT 11:29 PM CDT
Moon 4:07 PM CDT (5/20) 3:16 AM CDT (5/20)
Length of Visible Light 16h 17m
Length of Day
15h 06m
Waxing Gibbous, 75% of the Moon is Illuminated
May 20
Waxing Gibbous
May 24
Full
May 31
Last Quarter
Jun 8
New
Jun 16
First Quarter

Hourly Weather History & Observations

Time (CDT) Temp. Dew Point Humidity Pressure Visibility Wind Dir Wind Speed Gust Speed Precip Events Conditions
12:21 AM 53.6 °F 53.6 °F 100% 29.47 in 0.8 mi SSE 8.1 mph - N/A   Mist
12:52 AM 53.1 °F 53.1 °F 100% 29.48 in 0.8 mi SE 5.8 mph - N/A   Mist
1:03 AM 53.6 °F 53.6 °F 100% 29.48 in 1.8 mi ESE 6.9 mph - N/A   Overcast
1:15 AM 53.6 °F 53.6 °F 100% 29.48 in 0.5 mi ESE 8.1 mph - N/A Fog Fog
1:52 AM 53.1 °F 52.0 °F 96% 29.49 in 0.8 mi ESE 9.2 mph - N/A   Mist
1:57 AM 53.6 °F 51.8 °F 94% 29.48 in 2.0 mi East 8.1 mph - N/A   Overcast
2:22 AM 51.8 °F 51.8 °F 100% 29.49 in 1.8 mi ESE 8.1 mph - N/A   Mist
2:33 AM 51.8 °F 51.8 °F 100% 29.50 in 2.5 mi ESE 9.2 mph - N/A   Overcast
2:40 AM 51.8 °F 51.8 °F 100% 29.49 in 5.0 mi ESE 10.4 mph - N/A   Overcast
2:52 AM 52.0 °F 52.0 °F 100% 29.49 in 6.0 mi ESE 11.5 mph - N/A   Overcast
3:03 AM 51.8 °F 51.8 °F 100% 29.48 in 2.5 mi SE 9.2 mph - N/A   Overcast
3:10 AM 51.8 °F 51.8 °F 100% 29.48 in 3.0 mi SE 9.2 mph - N/A   Overcast
3:52 AM 52.0 °F 52.0 °F 100% 29.48 in 10.0 mi SE 8.1 mph - N/A   Overcast
4:52 AM 53.1 °F 51.1 °F 93% 29.49 in 10.0 mi ENE 3.5 mph - N/A   Overcast
5:47 AM 53.6 °F 51.8 °F 94% 29.48 in 10.0 mi North 4.6 mph - N/A   Overcast
5:52 AM 53.1 °F 51.1 °F 93% 29.49 in 10.0 mi North 6.9 mph - N/A   Overcast
6:03 AM 51.8 °F 51.8 °F 100% 29.49 in 1.8 mi North 9.2 mph - N/A   Overcast
6:13 AM 51.8 °F 51.8 °F 100% 29.49 in 3.0 mi North 5.8 mph - N/A   Overcast
6:52 AM 53.1 °F 52.0 °F 96% 29.49 in 10.0 mi NNW 4.6 mph - N/A   Overcast
7:52 AM 54.0 °F 53.1 °F 97% 29.48 in 8.0 mi NNW 6.9 mph - 0.00 in Rain Light Rain
7:59 AM 53.6 °F 53.6 °F 100% 29.48 in 8.0 mi NNW 6.9 mph - 0.00 in Rain Light Rain
8:27 AM 55.4 °F 53.6 °F 94% 29.48 in 4.0 mi NNW 10.4 mph - 0.00 in Rain Light Rain
8:44 AM 55.4 °F 53.6 °F 94% 29.48 in 5.0 mi NNW 8.1 mph - 0.01 in Rain Light Rain
8:52 AM 55.0 °F 54.0 °F 96% 29.48 in 10.0 mi NNW 6.9 mph - 0.01 in   Overcast
8:59 AM 55.4 °F 55.4 °F 100% 29.48 in 5.0 mi NNW 6.9 mph - 0.01 in Rain Light Rain
9:52 AM 57.0 °F 55.0 °F 93% 29.50 in 10.0 mi North 16.1 mph 24.2 mph 0.04 in Rain Light Rain
10:52 AM 55.0 °F 53.1 °F 93% 29.51 in 10.0 mi North 19.6 mph 26.5 mph 0.03 in Rain Light Rain
11:22 AM 53.6 °F 51.8 °F 94% 29.51 in 5.0 mi North 17.3 mph 27.6 mph 0.01 in Rain Light Rain
11:30 AM 53.6 °F 51.8 °F 94% 29.52 in 5.0 mi North 20.7 mph 26.5 mph 0.01 in Rain Light Rain
11:52 AM 54.0 °F 52.0 °F 93% 29.52 in 5.0 mi North 15.0 mph - 0.06 in Rain Rain
12:42 PM 55.4 °F 53.6 °F 94% 29.52 in 7.0 mi NNW 16.1 mph 21.9 mph 0.06 in Rain Light Rain
12:52 PM 55.9 °F 53.1 °F 90% 29.52 in 10.0 mi North 15.0 mph 24.2 mph 0.06 in Rain Light Rain
1:12 PM 55.4 °F 53.6 °F 94% 29.51 in 10.0 mi NNW 18.4 mph 23.0 mph 0.01 in Rain Light Rain
1:21 PM 55.4 °F 53.6 °F 94% 29.51 in 10.0 mi NNW 19.6 mph 26.5 mph N/A Rain Light Rain
1:52 PM 55.0 °F 52.0 °F 89% 29.52 in 10.0 mi NNW 19.6 mph 26.5 mph 0.02 in Rain Light Rain
2:52 PM 55.9 °F 52.0 °F 87% 29.52 in 10.0 mi NNW 17.3 mph 32.2 mph 0.00 in   Overcast
3:52 PM 55.0 °F 52.0 °F 89% 29.52 in 6.0 mi NNW 20.7 mph 27.6 mph 0.00 in Rain Light Rain
4:03 PM 55.4 °F 51.8 °F 88% 29.51 in 10.0 mi NNW 23.0 mph 28.8 mph 0.00 in Rain Light Rain
4:52 PM 54.0 °F 51.1 °F 90% 29.52 in 6.0 mi NNW 21.9 mph 31.1 mph 0.02 in Rain Light Rain
5:45 PM 53.6 °F 51.8 °F 94% 29.52 in 6.0 mi NNW 20.7 mph 26.5 mph 0.05 in Rain Light Rain
5:48 PM 53.6 °F 51.8 °F 94% 29.52 in 6.0 mi NNW 18.4 mph - 0.06 in Rain Light Rain
5:52 PM 54.0 °F 51.1 °F 90% 29.53 in 7.0 mi NNW 16.1 mph 26.5 mph 0.06 in Rain Light Rain
6:05 PM 53.6 °F 51.8 °F 94% 29.52 in 10.0 mi North 19.6 mph 25.3 mph 0.01 in Rain Light Rain
6:39 PM 53.6 °F 50.0 °F 88% 29.52 in 10.0 mi North 23.0 mph 29.9 mph 0.01 in Rain Light Rain
6:50 PM 53.6 °F 50.0 °F 88% 29.53 in 10.0 mi NNW 19.6 mph 28.8 mph 0.02 in Rain Light Rain
6:52 PM 53.1 °F 50.0 °F 89% 29.53 in 9.0 mi North 18.4 mph 28.8 mph 0.02 in Rain Light Rain
7:16 PM 51.8 °F 50.0 °F 94% 29.53 in 4.0 mi North 20.7 mph 26.5 mph 0.00 in Rain Light Rain
7:52 PM 52.0 °F 48.9 °F 89% 29.55 in 10.0 mi North 21.9 mph 31.1 mph 0.00 in   Overcast
8:37 PM 51.8 °F 48.2 °F 88% 29.55 in 2.0 mi North 17.3 mph 29.9 mph 0.01 in   Overcast
8:52 PM 51.1 °F 48.9 °F 92% 29.56 in 10.0 mi NNW 15.0 mph 26.5 mph 0.01 in Rain Light Rain
9:44 PM 50.0 °F 48.2 °F 94% 29.56 in 10.0 mi North 23.0 mph 29.9 mph 0.01 in Rain Light Rain
9:52 PM 50.0 °F 48.0 °F 93% 29.57 in 10.0 mi North 24.2 mph 31.1 mph 0.01 in Rain Light Rain
10:52 PM 50.0 °F 46.9 °F 89% 29.57 in 7.0 mi NNW 24.2 mph 32.2 mph 0.00 in Rain Light Rain
11:52 PM 48.9 °F 46.9 °F 93% 29.57 in 7.0 mi NNW 23.0 mph 34.5 mph 0.02 in Rain Light Rain